Location: Austin
(30.3000°N, 97.7500°W)
Time: 12:05:28
(UTC-05:00)

Sich 1 - Pass Details

Date: 03 April 2024
Orbit: 583 x 615 km, 82.5° (Epoch: 22 April)

Event Time Altitude Azimuth Distance (km) Brightness Sun altitude
Rises 06:12:45 0° 350° (N) 2,809 6.5 -14.5°
Reaches altitude 10° 06:14:57 10° 347° (NNW) 1,905 5.6 -14.0°
Maximum altitude 06:19:07 65° 266° (W) 642 2.9 -13.1°
Drops below altitude 10° 06:23:16 10° 184° (S) 1,898 5.4 -12.3°
Sets 06:25:27 0° 182° (S) 2,797 6.3 -11.8°
